Wind_Speed
14 14 14 15 15 15 15 15 16 16 17 17 18 18 17 17 17 17 17 17 17 17 16 16 16 16 15 15 15 14 14 14 13 13 12 13 13 13 13 14 14 15 16 17 20 22 24 24 22 21 20 19 19 19 19 18 18 17 18 19 20 20 17 12 9 10 11 7 6 7 8 9 11 13 12 10 10 9 10 11 11 10 9 8 6 6 4 3
14 14 14 15 15 15 14 14 15 15 16 16 17 17 17 17 17 17 17 17 17 17 17 17 16 16 16 15 14 14 13 13 13 12 12 12 12 12 12 13 13 14 15 17 19 22 24 24 23 22 21 21 20 20 20 19 19 19 19 20 20 19 15 10 8 9 11 9 7 6 7 8 10 12 11 10 10 10 10 9 9 9 7 6 5 4 4 4
13 14 14 14 15 15 15 15 15 15 15 15 16 16 17 17 17 17 17 17 17 17 17 17 17 16 15 15 14 14 13 12 12 12 12 12 11 11 12 12 13 14 15 17 18 21 23 24 24 23 22 22 21 21 20 20 19 19 20 20 20 18 13 10 9 9 10 11 9 5 6 7 9 10 10 9 8 8 8 8 7 6 5 3 3 4 4 4
14 14 14 15 15 15 15 15 15 15 15 15 15 15 16 16 17 17 18 17 17 17 17 17 17 16 15 14 13 13 13 12 12 12 12 11 10 11 11 12 13 13 14 15 17 20 22 24 24 24 23 23 22 22 21 20 20 20 20 20 20 18 14 12 10 9 10 12 11 7 6 8 9 9 10 8 6 6 6 6 5 4 2 2 3 4 4 3
14 15 15 15 15 16 16 15 15 15 15 15 14 14 15 15 16 17 17 17 17 16 16 16 16 15 14 13 12 12 12 11 12 12 11 10 9 9 10 11 11 12 13 14 16 19 21 23 24 24 24 24 23 22 22 21 20 20 20 21 20 17 16 13 10 10 11 13 13 11 9 9 10 9 9 9 6 5 4 3 2 1 0 2 4 4 4 3
15 15 15 16 16 16 16 16 16 16 15 15 15 14 14 14 15 16 16 16 16 16 16 16 15 14 13 12 11 11 10 9 10 11 10 9 9 9 8 8 9 10 12 13 15 17 20 23 24 24 25 24 24 22 21 21 20 20 19 20 20 18 16 13 11 12 14 15 15 15 13 11 10 9 9 9 7 6 5 3 2 2 3 4 4 5 4 3
15 16 16 16 16 16 16 16 16 16 16 16 15 15 14 14 14 15 15 15 15 15 15 15 14 13 13 12 11 10 10 10 11 11 9 9 8 9 8 7 7 8 10 13 14 16 19 21 23 24 24 24 23 22 21 20 20 20 20 19 19 18 16 13 13 15 16 17 16 15 15 12 11 10 9 9 8 7 6 5 4 4 5 5 5 4 4 3
16 16 16 16 16 16 16 16 16 16 16 16 16 15 15 14 14 14 14 14 13 13 13 13 13 12 12 11 10 9 10 11 12 12 11 11 10 10 9 8 7 7 10 12 14 15 17 20 22 22 23 23 22 21 21 20 19 20 20 19 18 18 16 15 15 16 17 18 16 15 16 14 13 12 11 10 10 9 7 6 5 5 6 6 5 4 4 2
16 16 16 16 16 16 16 16 16 17 16 16 16 15 15 15 14 14 14 14 13 12 12 13 12 12 11 10 10 9 10 11 11 12 13 12 11 10 10 9 8 8 9 12 14 15 16 17 18 20 20 21 21 20 20 18 17 19 19 19 18 18 17 17 17 17 17 17 17 16 16 15 13 13 13 12 12 11 8 7 6 6 6 5 5 5 4 2
16 16 16 16 16 16 16 16 16 16 16 16 16 16 15 15 15 14 14 14 13 12 12 12 11 11 11 10 10 9 10 11 11 12 12 12 10 9 9 8 8 9 9 11 12 12 13 15 15 17 18 18 19 19 19 17 16 17 18 19 19 18 18 17 18 18 16 16 17 18 17 16 14 13 13 12 12 10 7 6 5 6 5 5 7 6 5 3
15 15 15 15 15 15 15 15 16 16 16 16 16 16 15 15 15 15 14 14 13 12 12 12 11 11 11 10 10 10 11 11 10 11 11 10 9 8 8 8 8 8 8 10 11 12 13 15 15 16 16 16 17 17 17 17 16 15 15 16 16 16 17 16 17 18 15 13 14 17 17 17 16 15 14 11 9 7 6 6 5 6 6 8 9 7 5 3
15 15 15 14 14 14 14 14 15 15 16 16 16 15 15 15 15 15 15 14 14 13 12 12 11 11 11 10 10 10 11 9 9 10 10 9 8 7 8 8 8 8 9 10 12 14 15 16 16 16 15 15 16 15 14 15 15 16 15 12 11 13 15 15 15 16 13 11 12 15 17 19 20 18 14 10 7 6 7 7 6 7 8 10 9 7 4 2
15 15 14 14 13 13 13 14 14 14 15 15 16 15 15 15 16 16 16 15 15 14 13 12 11 11 10 10 10 10 9 7 8 10 11 10 8 7 8 8 8 9 13 14 15 15 15 16 16 16 16 14 15 13 11 14 14 14 14 11 9 10 12 14 13 13 13 11 12 14 15 17 21 20 16 12 9 8 8 8 9 10 10 11 8 6 3 3
14 14 14 14 13 13 13 13 13 14 14 15 15 15 16 16 16 16 16 16 15 15 14 13 12 11 10 9 10 9 8 8 9 11 11 10 8 8 9 9 9 11 16 18 18 17 16 18 16 15 15 13 14 13 10 12 13 12 12 11 11 9 10 14 14 13 13 13 14 14 15 16 16 17 16 13 10 10 10 10 10 10 10 10 8 5 4 4
14 14 14 14 13 13 14 14 14 13 14 14 15 15 16 16 16 16 16 16 15 15 15 13 12 11 9 9 9 8 9 10 10 11 11 10 9 9 10 10 11 14 18 19 19 17 16 18 17 14 14 14 13 13 11 11 12 12 10 9 11 11 10 12 13 11 10 11 14 14 14 15 15 15 15 12 11 12 11 11 11 10 10 10 8 6 5 5
14 14 14 14 13 13 14 14 14 14 14 14 15 14 15 16 16 15 15 15 14 15 15 13 11 11 9 8 9 9 11 12 11 11 10 10 10 10 11 12 14 18 20 19 19 17 15 16 17 14 13 14 12 12 12 10 10 11 11 8 9 11 10 9 10 8 7 8 11 14 13 10 11 14 15 15 14 13 14 12 12 11 11 11 8 7 6 6
14 14 14 14 14 14 14 14 14 14 14 14 14 14 15 15 15 14 14 13 12 12 12 12 12 11 10 9 9 11 14 14 12 11 11 12 11 11 12 14 18 22 22 20 19 18 15 14 16 15 13 13 12 12 12 10 10 11 11 10 8 10 9 7 7 6 6 7 7 12 14 11 10 10 11 16 17 16 16 14 12 13 13 12 10 8 7 6
14 14 14 14 14 14 14 14 14 13 14 14 14 14 14 14 14 13 13 12 10 10 9 9 11 10 9 10 10 12 16 15 12 12 12 13 13 13 15 18 22 24 21 21 19 17 15 13 13 14 13 13 12 12 12 11 11 11 11 11 9 7 7 6 5 5 7 8 7 10 14 14 14 10 7 13 19 18 16 14 14 15 14 13 11 9 7 7
14 14 14 14 14 14 14 14 14 13 13 14 14 14 14 13 12 12 13 11 10 9 8 7 10 10 9 11 12 14 16 15 13 13 14 14 14 15 19 23 24 23 20 20 19 16 15 13 13 14 14 14 13 11 10 9 9 9 9 10 8 6 6 5 4 5 6 6 8 12 14 14 14 12 8 11 16 16 15 16 17 17 16 13 11 10 8 8
15 15 14 14 14 14 13 14 14 13 13 14 15 15 13 13 12 12 12 12 11 12 10 9 10 12 13 12 14 15 16 16 14 14 15 15 16 18 22 25 24 22 20 19 18 17 14 13 14 14 13 12 12 11 10 9 9 8 8 8 7 6 5 2 3 4 3 4 6 12 13 13 14 13 9 10 11 11 13 17 18 18 16 14 11 10 8 9
16 15 15 15 14 14 13 13 13 12 12 13 14 14 14 14 13 13 13 9 8 12 13 13 12 13 16 15 15 15 16 16 15 15 16 16 17 20 23 24 23 22 20 18 17 16 15 15 14 13 11 10 12 13 11 11 11 8 8 7 5 5 4 2 3 1 2 2 5 12 15 14 15 14 10 9 10 9 11 16 19 18 17 14 11 10 9 9
17 16 16 15 15 15 13 12 13 12 12 13 14 14 14 14 14 15 15 9 4 9 14 14 11 10 15 17 17 17 17 17 17 17 17 18 18 20 23 23 22 21 20 20 17 15 17 17 14 10 10 11 12 12 12 12 12 9 8 7 5 4 3 3 3 1 3 2 4 14 18 15 14 13 11 10 10 9 10 14 18 19 17 14 11 11 11 9
18 18 17 16 16 15 13 12 12 12 12 13 14 15 14 14 14 14 17 15 4 5 11 13 9 7 13 18 19 19 18 17 18 19 19 18 18 20 21 21 21 20 19 20 19 16 15 12 10 10 9 10 10 12 12 12 11 10 9 8 6 4 4 3 2 1 2 2 5 14 17 15 14 12 11 10 9 9 10 14 19 19 16 13 12 13 12 8
18 18 18 17 16 16 15 12 12 12 11 13 14 14 14 13 13 13 16 18 10 3 9 11 9 6 12 19 21 20 18 17 18 20 19 18 18 18 18 18 18 18 18 18 19 18 13 7 9 11 8 8 9 10 12 12 11 12 11 9 7 4 3 2 2 1 2 4 8 12 11 11 12 12 12 10 9 8 10 16 20 20 17 15 14 14 12 9
19 18 19 18 17 17 16 14 13 12 12 13 14 14 14 11 12 13 15 19 14 6 6 9 8 7 14 20 22 20 18 18 17 18 18 16 16 16 16 16 16 16 16 16 16 17 13 9 11 10 7 7 10 10 11 12 13 12 11 9 7 5 3 3 3 4 5 5 9 10 6 5 8 12 11 9 9 9 12 17 20 19 18 17 16 16 13 11
20 19 19 18 18 17 17 16 14 13 12 13 14 14 13 10 11 12 15 19 14 4 2 4 5 7 12 19 22 20 19 18 16 16 17 15 15 14 14 16 17 15 15 15 15 15 14 12 10 8 3 4 10 12 12 14 14 12 9 8 7 5 5 5 4 5 5 5 8 8 5 4 6 10 11 10 10 11 14 18 19 18 18 17 16 16 15 13
20 20 20 19 19 18 17 17 15 13 13 13 14 13 12 10 9 11 13 12 8 2 3 2 4 6 10 16 22 21 16 15 17 16 16 16 16 15 14 16 17 16 16 16 13 13 15 13 9 6 1 2 10 14 14 15 15 10 7 7 6 4 4 6 6 5 6 7 7 8 7 6 6 8 10 11 11 11 15 18 20 20 18 17 17 16 16 14
20 20 20 19 19 18 17 17 17 15 14 13 13 13 11 9 7 9 7 4 2 2 2 1 5 4 8 17 22 22 13 11 18 18 16 17 17 16 15 15 16 15 15 17 14 11 13 12 8 5 1 3 11 14 14 15 14 10 8 7 5 3 4 7 7 5 7 8 5 8 10 7 5 8 10 11 11 10 13 16 19 21 20 18 17 17 17 15
20 20 20 19 19 19 18 17 17 17 15 13 12 12 11 8 6 6 4 1 2 1 1 4 5 3 7 16 22 23 15 9 15 19 18 19 18 16 15 13 14 13 14 17 16 11 10 11 9 6 4 3 8 13 14 15 14 11 10 8 5 4 5 7 8 7 8 7 5 9 12 6 4 9 11 9 10 10 11 14 17 20 21 20 19 19 18 17
20 20 20 19 19 19 19 17 17 18 17 14 13 13 11 9 7 3 1 3 1 1 2 4 5 4 6 13 20 24 19 10 10 16 21 21 17 16 15 12 13 13 12 15 16 13 10 10 10 8 5 3 5 11 15 14 13 12 10 8 7 7 7 6 7 7 6 4 6 10 12 7 4 9 12 11 10 11 11 13 15 18 20 21 21 21 20 19
19 19 19 19 18 19 18 17 17 19 18 16 14 13 12 11 9 3 1 5 4 2 2 5 7 5 4 9 17 23 23 16 9 12 22 23 19 19 17 15 14 12 12 14 15 15 13 12 11 10 8 4 5 11 14 15 14 12 10 10 9 8 7 5 5 7 5 3 5 9 11 10 6 9 15 14 13 13 13 14 15 16 18 20 22 23 22 22
18 18 19 19 18 18 17 17 18 19 18 18 15 13 14 11 11 12 8 4 4 4 5 7 7 6 4 5 12 19 24 22 15 12 18 22 20 21 19 17 16 12 10 13 13 12 13 14 13 12 11 7 6 11 15 16 16 13 11 12 10 5 4 4 3 3 3 2 4 7 8 7 6 10 17 17 15 15 14 14 15 15 16 17 20 23 24 25
17 16 17 19 18 17 17 18 19 19 19 19 16 16 16 10 8 19 19 8 3 6 7 6 6 6 5 5 8 16 21 23 20 16 16 17 17 19 19 19 19 14 9 10 13 12 9 11 15 14 13 11 10 14 17 17 18 15 13 14 11 5 2 3 1 0 2 3 5 8 6 4 5 10 17 18 16 16 16 15 16 16 15 16 17 20 24 27
17 16 16 18 18 17 18 18 19 20 20 20 19 18 18 12 10 18 20 15 10 8 7 6 5 5 6 6 7 11 17 20 21 20 19 17 17 19 20 20 20 19 14 11 13 13 8 8 13 15 13 12 12 15 16 16 17 17 16 15 13 9 5 3 3 3 3 3 6 8 5 4 5 8 14 17 16 16 16 16 15 16 16 16 17 19 22 26
17 17 15 16 17 17 17 17 19 21 22 21 21 21 23 21 18 17 15 15 15 14 13 11 9 7 6 7 8 9 12 15 18 20 20 20 19 19 20 20 19 20 19 14 11 11 10 8 11 15 14 12 13 14 15 15 15 17 17 15 13 13 10 5 5 6 4 3 4 7 5 5 7 7 10 12 11 11 11 12 14 15 16 17 19 20 21 23
18 17 16 15 16 16 16 16 17 20 23 23 23 26 29 27 21 15 13 12 13 13 13 12 11 10 8 9 11 10 11 11 13 16 17 17 19 20 20 19 18 19 20 19 14 10 10 9 10 15 16 13 13 15 17 17 15 15 17 18 15 14 12 8 4 4 4 3 4 5 4 5 7 7 9 9 7 7 7 7 10 12 15 17 19 20 18 18
18 16 16 15 15 14 14 15 16 20 24 25 27 29 30 28 22 16 12 12 12 12 11 8 7 8 7 9 13 14 13 11 10 13 14 13 14 17 20 20 19 18 17 19 18 13 10 8 9 16 18 16 15 15 18 19 17 14 15 18 18 13 11 9 4 3 3 2 3 5 4 6 7 6 9 11 10 8 6 5 6 7 8 9 11 12 11 11
18 16 15 15 14 13 13 13 15 20 24 27 30 30 28 27 25 21 15 12 11 10 9 7 6 6 5 6 10 12 14 13 11 11 12 13 10 9 15 17 16 16 15 18 19 15 12 9 7 13 18 18 17 16 17 19 20 17 14 16 15 10 9 10 6 3 4 2 1 4 4 7 12 10 8 11 11 9 6 5 4 3 2 1 3 4 4 5
18 16 14 13 13 12 11 12 15 19 24 29 31 29 28 27 26 24 21 17 13 11 9 8 7 7 6 5 5 7 11 13 13 13 11 12 9 5 9 12 12 13 15 17 20 18 16 11 6 10 16 17 17 18 17 18 21 20 16 14 15 12 11 13 10 5 6 4 1 3 3 6 15 15 10 9 11 9 7 5 4 2 2 4 6 5 6 8
18 16 13 12 11 10 9 11 15 19 25 30 31 29 27 25 24 23 22 20 18 15 13 12 11 10 9 8 5 5 8 10 12 15 14 13 12 7 6 7 9 11 13 17 20 20 19 17 10 9 13 14 14 18 19 17 19 22 20 18 18 15 12 12 11 9 6 3 2 3 2 5 14 17 13 12 12 10 8 7 6 3 0 4 4 2 3 5
17 14 11 11 10 7 7 9 15 20 25 28 29 28 26 23 21 21 20 20 19 17 16 15 14 13 12 11 7 4 6 7 8 11 14 16 18 15 11 9 10 9 8 13 20 21 20 20 16 11 13 14 14 17 18 17 18 22 22 22 21 19 16 11 7 9 8 5 4 4 2 6 13 16 16 15 13 10 8 8 8 6 4 3 1 2 2 2
16 11 9 9 8 6 6 9 13 19 24 26 26 26 24 22 20 17 16 18 17 17 17 16 15 14 15 15 12 7 6 7 8 8 10 12 17 19 19 17 14 9 4 7 16 21 21 20 18 14 13 14 14 14 16 16 17 20 20 21 21 20 19 13 7 10 12 7 5 5 3 5 10 15 17 17 13 11 10 9 9 8 7 5 4 4 5 6
16 11 9 8 6 5 5 8 13 17 21 24 23 21 19 19 18 16 15 15 15 15 16 15 15 15 15 16 15 13 10 9 9 9 10 11 13 16 20 24 24 17 9 7 9 16 19 17 15 13 10 12 12 11 14 14 14 16 17 19 19 19 20 17 11 12 16 12 7 5 3 5 10 14 16 16 14 12 12 12 11 10 8 7 6 6 6 8
14 11 8 6 5 4 5 10 13 16 19 19 19 17 16 16 16 15 14 13 12 12 12 13 14 14 14 15 15 14 12 11 10 11 12 13 13 13 14 19 24 22 17 13 10 11 14 14 14 12 8 7 8 8 11 12 11 13 15 15 17 17 18 17 13 12 14 15 12 6 3 7 13 15 16 15 14 14 13 13 12 10 9 9 7 7 8 9
12 10 8 6 6 4 7 12 12 14 16 16 15 14 14 13 13 13 11 10 11 11 11 12 13 13 13 14 14 14 12 11 10 12 15 14 12 14 13 12 15 16 16 17 16 12 9 11 15 14 8 6 5 5 9 12 11 11 12 12 13 14 16 15 13 11 11 14 15 9 4 10 17 17 17 16 15 15 14 14 14 13 11 10 10 10 10 10
11 9 8 7 7 5 5 10 12 13 15 15 14 13 13 13 12 12 11 9 9 11 12 13 13 13 13 13 15 14 13 13 11 12 17 17 13 14 16 14 13 12 11 14 19 18 12 10 13 16 14 10 6 6 11 15 14 13 13 11 10 10 13 14 12 10 10 12 14 12 8 12 18 20 19 18 17 16 16 16 16 15 13 12 12 12 11 10
12 12 10 7 7 7 4 6 9 12 16 17 15 12 13 13 11 10 11 10 9 10 12 13 13 13 13 13 14 14 14 15 13 12 16 18 16 15 16 17 17 16 13 12 15 17 15 12 11 12 12 10 4 5 10 12 12 13 13 11 8 7 8 10 9 7 9 10 10 11 11 12 18 22 22 20 19 17 17 17 17 16 15 14 14 13 13 11
14 15 14 11 10 9 7 7 5 3 11 16 16 12 13 14 13 11 10 10 10 11 10 10 11 13 12 12 13 14 14 15 14 14 15 16 16 15 15 16 16 17 17 13 10 9 10 12 12 11 12 14 11 8 8 7 8 9 9 7 6 5 4 5 5 3 5 6 4 6 9 10 15 21 22 21 21 19 19 19 18 18 17 16 15 14 14 13
16 15 15 15 14 13 11 9 7 4 5 11 13 12 13 15 14 13 12 10 10 10 8 8 9 10 11 12 11 12 13 15 14 15 16 17 16 16 15 14 13 14 15 14 11 10 10 12 12 10 11 12 12 12 11 8 7 8 6 4 2 2 1 3 4 1 2 3 3 4 5 7 12 18 20 22 22 21 21 20 20 20 18 16 15 15 15 14
15 14 15 14 13 14 12 10 8 6 5 7 11 13 13 14 14 12 12 10 10 10 8 7 8 8 8 8 9 10 12 13 13 14 16 17 16 16 15 13 11 12 13 16 17 16 15 15 15 13 11 9 8 10 10 7 4 3 2 2 3 1 1 2 3 4 4 5 5 6 6 7 11 15 19 22 22 23 23 22 22 21 19 17 16 16 16 14
13 12 12 11 10 12 12 10 9 7 7 7 11 14 14 14 14 13 12 11 9 9 8 7 8 8 6 5 5 7 9 10 11 13 14 15 14 13 12 10 10 11 13 16 19 19 18 18 19 17 13 11 9 9 9 8 7 8 9 9 9 8 7 6 5 6 8 9 9 10 11 10 11 14 18 21 23 24 24 24 24 23 21 20 19 18 17 16
12 10 10 9 9 10 11 10 7 8 9 9 9 9 10 12 12 10 10 12 10 9 9 7 6 6 4 3 4 5 6 7 9 10 11 12 12 12 11 11 11 12 12 13 15 15 15 16 18 17 14 13 12 11 10 8 6 9 13 14 12 12 11 10 9 8 9 11 12 13 14 13 13 15 18 21 23 24 24 25 25 24 23 22 21 20 19 18
Wind_Direction
300 301 302 302 302 301 300 298 296 292 287 284 281 278 276 273 270 267 265 264 263 264 264 265 267 268 269 270 270 271 271 272 273 270 268 264 261 258 254 252 250 244 238 235 232 230 228 226 224 221 221 220 218 218 218 218 217 218 219 223 228 231 232 229 222 195 175 161 130 110 115 118 114 120 121 116 117 126 140 143 144 139 123 117 102 86 89 53
301 302 303 303 303 303 303 302 300 297 293 288 284 280 277 274 272 268 265 263 263 263 264 265 266 267 268 269 269 269 269 272 272 271 269 263 260 257 254 252 248 244 238 233 230 229 227 226 224 221 220 220 219 218 217 218 218 219 222 226 230 233 231 225 218 205 194 182 159 125 115 116 118 122 119 114 114 120 131 131 131 130 114 104 86 55 36 13
301 302 303 303 304 304 305 304 302 301 299 295 290 283 279 275 272 270 266 263 263 263 264 265 265 266 267 267 267 267 268 271 271 270 266 262 260 256 252 249 245 241 236 233 231 229 227 225 224 221 221 221 220 220 218 217 218 220 223 227 231 233 228 218 214 213 210 197 181 154 129 126 124 119 116 116 110 116 126 122 119 119 103 79 48 12 357 349
302 302 303 303 303 304 305 305 304 303 302 301 297 291 285 279 275 272 268 266 263 263 263 263 264 265 265 264 264 265 267 269 269 266 263 262 259 254 249 245 243 239 236 234 232 229 226 224 223 221 221 222 222 221 219 217 217 219 223 227 231 232 226 216 213 215 218 209 198 187 159 148 144 132 131 131 109 113 127 124 116 101 78 1 339 334 332 319
303 303 302 302 302 302 303 304 304 304 303 302 301 298 292 285 279 274 271 268 266 265 264 264 263 263 262 260 260 262 265 269 266 261 260 257 252 249 246 243 242 239 236 232 229 228 226 224 222 221 220 221 222 221 221 219 218 220 223 228 231 230 225 218 212 209 214 214 208 203 187 171 164 152 150 150 133 131 144 140 133 125 258 300 309 310 307 284
305 304 303 302 301 301 302 302 302 303 302 301 300 300 298 292 284 278 273 270 269 268 266 265 263 261 259 257 256 257 260 260 256 255 253 246 242 242 240 241 242 237 234 230 227 226 224 223 221 220 220 220 222 222 223 221 220 222 225 229 233 231 225 218 213 209 210 211 209 209 204 188 177 173 169 161 149 152 170 188 209 239 259 286 299 294 286 265
305 305 304 303 302 301 300 299 299 299 300 299 298 299 299 296 290 284 278 273 271 270 268 265 262 259 256 254 252 252 255 250 249 250 246 241 236 234 232 234 241 238 233 229 225 223 223 223 220 218 218 220 222 223 224 224 222 223 225 230 234 233 225 217 212 209 210 210 212 213 208 199 192 193 186 176 173 174 186 210 227 245 262 278 287 275 254 245
306 306 305 304 303 301 299 298 297 296 296 296 296 297 297 297 294 288 282 277 273 270 267 263 259 255 251 249 248 249 251 249 248 248 248 244 238 238 239 238 240 235 231 228 224 219 218 220 218 216 217 218 220 222 225 225 223 222 225 230 233 233 227 219 212 209 209 210 216 219 209 203 206 209 198 190 194 196 203 219 232 247 262 268 263 237 224 238
307 306 306 305 304 302 300 297 295 294 293 293 294 295 296 296 294 290 284 279 274 270 264 259 256 251 245 243 245 245 247 246 246 247 248 247 244 245 245 242 235 227 226 226 224 218 214 215 215 214 214 216 217 220 223 224 224 224 228 233 235 233 230 225 214 209 210 211 219 222 214 210 214 217 208 201 202 204 210 221 237 248 257 253 224 208 204 196
307 306 306 306 305 304 301 298 295 293 292 291 292 293 295 295 293 290 284 279 274 269 264 258 252 245 242 241 242 244 241 240 242 243 246 249 251 248 244 245 234 220 219 221 222 216 209 207 207 209 210 212 214 216 220 219 220 224 231 237 238 235 233 231 215 210 215 216 222 224 220 221 222 222 215 208 207 207 212 221 236 246 243 216 196 196 187 181
306 305 305 305 305 305 303 300 297 294 292 291 290 292 293 293 290 288 283 278 272 266 261 255 247 242 240 238 238 239 234 233 235 235 241 249 253 248 240 241 230 213 210 213 208 196 194 196 197 200 201 206 209 211 215 214 213 219 229 235 240 238 233 231 216 211 221 225 229 229 227 228 226 226 222 213 209 208 214 225 235 236 217 193 189 188 180 199
305 304 303 303 304 305 304 303 301 298 295 292 292 292 291 290 288 286 283 278 271 263 257 250 245 241 237 235 235 234 231 230 227 226 235 246 252 248 238 232 220 204 194 190 188 182 181 188 193 192 194 200 201 203 208 208 209 216 225 231 237 239 230 227 220 216 223 228 231 232 233 233 230 231 230 222 217 212 219 227 223 215 193 183 187 179 176 225
303 302 300 299 300 302 304 305 305 304 300 296 294 292 290 288 287 287 285 281 273 263 255 247 244 240 235 236 234 231 231 221 214 221 231 242 247 239 233 227 213 198 185 173 171 172 175 186 190 190 193 194 193 195 199 202 206 214 226 231 229 235 231 225 221 220 224 228 231 234 238 236 232 234 234 228 220 213 219 219 210 202 185 178 179 169 180 216
300 299 297 296 296 299 301 304 307 309 308 303 296 291 289 288 288 289 287 284 276 267 258 248 243 238 232 236 234 227 219 202 206 222 229 236 236 227 225 218 202 195 188 176 168 166 176 187 186 187 191 188 189 190 182 189 201 209 219 228 223 225 227 222 223 228 232 235 237 236 240 239 234 234 231 225 219 211 210 209 204 196 183 174 165 167 191 197
298 297 295 293 293 296 299 302 305 309 312 309 301 294 289 288 289 290 290 288 282 274 263 250 243 236 229 233 234 216 195 193 204 216 224 226 222 216 211 200 188 187 186 177 167 167 179 189 187 187 191 188 189 188 179 179 193 201 206 214 217 216 217 219 222 229 233 236 236 232 239 242 238 239 235 228 221 211 204 201 201 195 184 170 158 173 195 193
297 295 293 291 291 293 297 300 303 307 311 312 310 301 292 290 290 293 296 295 291 283 270 255 241 233 226 225 226 204 183 191 203 205 213 215 208 204 196 185 179 180 179 173 168 171 179 187 190 189 190 191 187 184 186 185 187 196 202 200 201 206 212 212 210 219 228 232 233 227 230 237 236 241 241 232 222 211 206 202 199 194 184 165 159 183 190 191
296 294 292 290 290 292 295 298 301 305 307 311 313 307 299 295 295 298 300 298 299 295 279 258 239 230 224 218 215 197 186 195 201 199 207 205 197 193 184 175 175 177 176 173 172 175 178 182 189 191 190 189 186 186 188 194 194 190 195 199 196 199 206 203 203 227 244 239 242 231 225 227 232 238 236 223 212 204 205 206 199 189 176 162 167 188 182 183
295 293 291 290 289 291 294 296 299 302 304 307 309 308 306 304 302 303 301 300 306 307 294 259 238 231 225 217 208 194 191 198 200 200 204 198 191 185 174 172 177 178 177 177 178 181 183 183 187 193 196 192 189 190 193 200 199 185 186 198 201 202 209 213 225 257 262 257 256 236 224 225 228 227 218 207 202 201 205 206 197 183 169 162 173 188 177 180
294 292 290 289 288 289 293 295 297 299 301 302 302 305 310 311 311 308 303 305 310 307 295 260 230 219 214 211 206 197 195 200 202 204 204 194 190 185 174 175 181 182 181 182 184 188 191 191 190 192 199 202 198 198 206 206 192 179 185 195 197 200 206 218 256 276 280 278 252 231 226 225 219 213 197 182 189 196 200 198 189 176 165 163 177 188 178 182
293 291 289 288 287 287 291 293 295 295 296 296 296 301 306 308 310 307 303 305 304 296 282 263 236 211 203 204 203 197 196 202 204 206 205 194 190 186 179 181 184 185 184 186 190 194 197 200 203 200 199 206 210 215 223 209 187 180 185 182 184 197 203 223 269 287 305 294 237 216 214 211 202 198 186 170 177 185 191 192 183 172 165 163 178 188 182 187
292 291 289 286 285 285 287 290 292 292 292 291 291 296 300 303 310 313 310 301 284 281 273 263 250 217 203 204 201 195 196 201 203 206 204 194 191 188 184 186 188 188 188 189 196 202 206 213 214 211 210 217 223 226 226 209 197 197 189 173 169 192 197 206 237 302 1 310 214 191 186 188 189 190 187 183 186 186 190 190 180 170 163 165 181 186 183 189
289 289 287 286 284 282 283 285 287 287 288 287 285 291 296 303 315 321 319 312 249 257 267 264 260 225 203 206 202 196 199 199 200 204 200 193 191 189 190 192 193 194 193 195 201 207 217 224 221 217 222 225 225 220 213 202 200 203 191 179 173 167 154 167 211 310 26 356 196 182 178 177 181 184 183 187 190 183 183 186 179 170 163 168 181 184 188 190
286 286 285 284 282 280 279 279 280 281 282 282 281 286 293 303 317 324 322 319 295 241 264 265 267 229 201 207 205 200 202 199 200 200 195 194 190 189 194 196 197 198 199 203 207 209 220 228 216 211 214 210 208 205 198 193 196 197 187 182 171 138 118 145 209 294 45 44 160 169 171 170 174 179 182 189 192 181 175 177 177 172 166 172 183 189 192 188
286 285 283 281 280 278 276 274 274 274 274 276 277 281 289 301 317 323 322 317 314 280 264 261 264 227 195 204 207 204 201 197 201 198 192 194 190 188 194 198 201 203 204 210 214 217 223 211 183 189 189 189 199 202 198 193 192 192 189 184 164 132 108 123 172 179 107 110 138 145 154 165 171 178 185 194 197 190 178 174 176 175 173 176 185 192 192 184
286 284 282 280 278 275 274 271 268 268 269 270 272 276 284 298 315 322 323 317 318 320 272 256 252 221 199 204 205 201 197 195 198 198 196 197 193 190 189 194 202 202 203 208 211 216 216 190 169 172 175 189 200 203 200 196 195 200 202 190 163 146 149 148 154 158 144 140 145 145 143 153 175 183 186 196 201 199 188 179 179 180 180 183 187 191 192 184
284 282 281 279 276 273 271 268 264 263 263 264 267 271 279 294 309 321 324 315 313 331 311 266 229 212 203 205 202 195 195 196 194 198 201 199 198 197 192 197 201 195 196 200 205 210 203 188 176 166 151 182 194 200 199 195 201 213 206 179 165 163 176 184 180 169 165 162 165 177 180 139 165 185 184 196 207 200 191 186 185 185 186 189 190 192 194 190
284 280 278 276 275 272 268 265 262 260 257 258 263 265 272 286 303 322 327 314 304 320 330 296 182 190 199 201 199 193 193 196 195 198 200 197 197 198 199 203 201 194 194 197 204 204 191 185 183 175 108 158 191 200 198 196 204 210 185 161 161 166 186 201 199 190 180 168 166 189 190 152 151 174 178 196 211 203 194 192 191 191 192 193 194 198 198 197
287 281 277 273 272 269 265 263 260 256 253 252 257 259 264 274 293 320 333 321 308 334 332 174 159 167 194 198 196 192 190 192 196 198 195 195 199 200 204 206 199 196 200 201 202 197 187 188 189 189 174 167 193 203 204 204 209 205 182 169 165 168 199 200 193 187 176 173 168 170 173 163 155 164 166 186 200 194 193 195 195 197 197 197 199 203 203 205
289 283 277 272 269 267 264 261 255 252 249 246 249 251 253 258 274 305 324 292 306 342 123 148 157 154 189 198 194 191 191 184 195 200 194 194 199 202 205 202 194 198 208 209 208 203 195 194 194 203 211 190 198 201 200 204 206 198 187 187 186 188 202 194 186 182 177 185 187 170 174 182 182 172 166 169 177 178 187 194 199 201 202 203 204 206 208 211
292 286 280 272 267 264 261 258 252 248 246 241 240 241 240 240 246 279 306 228 175 94 177 170 165 156 183 199 195 193 194 184 187 198 196 196 198 201 205 202 201 208 215 216 216 215 212 208 208 218 219 202 201 195 190 194 197 194 196 201 196 186 185 187 182 179 183 197 186 178 185 193 193 185 180 176 179 184 190 196 203 207 208 209 209 209 211 213
296 290 283 275 266 261 257 253 248 244 241 236 232 231 226 225 224 205 185 225 202 131 158 158 159 160 172 199 200 200 202 199 194 197 195 195 200 206 209 207 205 210 219 224 226 224 226 226 222 224 220 198 193 191 186 187 189 192 199 192 180 175 174 184 190 185 193 204 180 181 188 194 204 192 186 188 192 193 195 200 207 212 215 217 218 217 215 216
301 293 286 278 269 261 254 248 243 241 237 231 227 222 212 207 215 216 215 230 222 189 159 146 157 168 175 201 205 206 208 207 208 205 196 196 205 212 214 213 204 199 212 224 229 233 233 229 224 225 223 212 201 193 185 184 188 194 195 179 170 166 172 191 205 201 219 228 196 189 185 192 210 193 186 190 193 192 194 200 205 210 216 220 224 224 222 220
306 298 287 279 272 261 251 244 238 237 234 227 223 215 202 192 218 226 223 221 201 177 167 161 166 182 207 224 209 207 211 212 210 208 203 203 213 219 221 221 215 209 212 218 223 230 231 224 222 224 224 217 209 198 190 189 193 197 194 184 177 157 149 196 194 233 251 232 204 199 191 190 198 188 186 189 192 192 196 201 204 208 214 220 226 228 226 223
308 303 291 280 274 264 253 244 234 232 230 224 219 208 197 198 224 231 230 229 224 217 214 212 202 207 225 226 213 206 209 214 215 216 217 214 217 222 222 222 221 220 222 219 221 223 220 217 216 217 220 217 207 200 199 198 198 199 199 199 197 184 176 198 198 201 215 192 182 189 193 184 180 184 187 191 196 198 201 206 211 216 222 227 230 231 231 228
306 305 300 286 277 269 259 247 234 228 226 221 216 204 200 209 221 229 235 237 238 243 247 247 245 251 249 223 210 199 202 212 217 222 227 225 224 227 227 224 222 222 222 219 220 219 221 225 213 209 213 214 205 201 204 204 203 204 204 207 211 203 198 194 192 196 182 158 176 186 194 190 187 199 197 194 202 204 207 218 224 230 232 232 234 236 242 240
307 305 306 299 284 272 261 249 236 227 224 220 212 208 212 219 223 227 233 234 238 243 245 251 253 254 255 228 213 204 201 208 211 214 221 226 230 233 233 232 229 227 224 219 215 211 215 221 210 205 207 209 210 207 203 203 205 205 203 209 214 209 206 196 165 160 163 180 200 191 196 193 193 213 213 211 222 214 213 229 233 239 238 236 240 244 255 257
311 307 308 305 291 275 260 248 234 224 223 219 214 216 223 227 225 225 226 226 232 238 240 243 238 236 241 225 215 211 208 207 204 206 209 214 225 231 233 238 237 236 232 223 217 213 210 214 209 207 206 204 209 212 207 208 213 209 205 213 215 207 206 201 159 112 156 199 201 192 202 193 187 205 212 217 230 221 210 219 225 243 248 241 250 258 271 273
312 309 307 305 295 280 261 244 230 222 220 217 218 224 230 229 226 226 225 225 228 230 232 231 218 217 224 215 212 212 213 211 205 203 203 202 211 225 228 233 237 236 233 223 220 217 213 218 217 213 210 204 205 209 208 209 215 218 218 218 215 204 194 190 173 150 188 194 165 195 215 208 203 206 209 214 220 213 198 199 224 263 309 23 356 325 330 332
316 313 309 305 298 285 264 240 226 219 216 216 219 225 230 230 230 229 228 230 232 232 236 242 239 236 232 221 214 209 213 217 216 215 210 201 202 209 216 222 227 228 226 222 220 216 214 219 221 213 212 210 210 212 210 209 210 214 219 216 212 211 198 190 187 184 190 189 152 184 211 227 216 214 211 207 208 206 194 191 218 255 14 15 17 30 29 15
322 321 314 309 304 289 267 239 223 216 215 220 223 225 229 232 232 231 232 234 238 242 246 250 251 251 244 236 232 211 213 222 224 226 227 218 212 207 205 203 198 208 219 221 219 216 216 220 219 208 209 207 208 212 214 214 210 208 210 208 205 204 190 184 194 197 187 176 163 173 190 219 216 212 209 204 200 200 197 196 207 203 273 335 354 52 41 20
326 326 316 311 312 292 263 239 226 218 217 222 226 227 230 234 235 234 234 236 240 245 248 251 251 250 245 240 234 214 216 226 227 229 233 231 229 228 221 201 184 189 210 216 214 212 215 220 218 207 207 205 207 213 213 213 213 212 212 209 205 201 188 175 191 201 191 186 183 179 184 200 204 205 205 205 202 204 205 200 202 205 218 254 233 179 181 144
333 335 323 315 315 296 262 239 228 220 216 219 224 226 230 235 239 239 236 237 242 245 247 250 249 245 243 240 237 232 232 237 237 235 234 233 234 230 223 211 198 193 216 225 215 210 211 217 214 204 206 209 211 214 210 207 209 211 213 212 209 209 202 192 194 196 191 191 182 176 180 187 194 199 202 205 210 213 206 190 191 203 210 209 186 167 171 166
345 348 341 329 322 304 262 232 224 216 212 217 222 225 229 235 240 241 239 240 243 245 247 248 246 244 242 241 242 242 243 243 243 239 233 232 232 226 221 217 212 210 222 240 229 213 207 205 195 180 179 191 192 193 192 193 197 198 203 209 208 209 207 204 209 202 193 188 175 166 182 182 185 192 197 203 210 207 197 190 192 200 195 181 172 169 173 173
354 1 353 340 333 305 238 220 220 213 210 216 222 224 228 233 236 237 239 240 241 241 242 241 240 240 239 240 242 243 242 239 236 229 221 222 221 215 218 224 222 221 224 225 223 212 206 198 179 156 140 161 170 172 176 173 177 184 188 195 198 202 205 206 208 202 194 193 189 181 182 178 180 187 191 195 198 193 191 193 190 181 170 163 165 175 184 180
5 12 6 354 347 310 238 225 224 216 212 215 220 222 223 226 230 231 233 237 235 231 230 230 231 232 234 236 237 240 239 231 228 220 210 208 206 200 200 213 221 224 226 224 219 209 202 199 189 180 176 177 171 180 180 173 173 175 173 176 184 191 198 202 200 194 196 201 198 191 180 178 181 184 185 187 189 187 188 191 183 170 163 167 172 177 184 189
23 23 12 3 1 350 265 243 238 226 218 216 215 215 213 214 219 223 228 232 229 226 225 224 223 223 227 230 231 234 231 223 222 217 207 202 197 191 192 198 204 208 216 222 221 218 210 199 200 202 200 187 162 163 173 173 172 165 157 156 159 171 188 197 197 197 201 203 200 200 199 186 182 183 183 186 188 189 190 187 180 174 173 177 182 187 195 202
39 40 32 28 21 15 344 287 261 230 216 213 210 206 205 205 207 211 215 217 215 216 219 220 219 219 220 222 223 222 219 213 209 206 206 205 205 200 198 204 210 213 214 214 217 225 226 213 213 223 217 208 197 167 166 168 169 164 157 154 151 151 169 181 181 186 199 203 204 207 208 196 186 185 187 188 188 189 191 187 181 182 186 188 192 198 203 203
43 45 41 44 39 32 24 5 352 237 204 202 200 199 196 193 192 194 192 195 201 203 206 210 211 213 212 210 211 209 206 202 195 194 200 204 208 209 202 203 209 212 215 214 204 214 223 212 211 220 221 220 220 201 182 175 169 164 159 161 167 165 171 180 171 159 189 205 218 214 212 207 196 190 191 193 192 191 190 189 188 190 194 198 202 203 201 199
42 45 44 46 43 39 37 35 42 77 159 176 177 178 179 176 175 176 173 174 184 187 192 197 194 201 204 203 207 203 196 195 189 187 194 197 204 209 203 202 205 205 213 215 195 185 188 182 178 176 176 181 182 174 165 157 152 149 142 139 152 143 166 223 224 235 236 238 250 242 234 224 208 200 198 198 197 195 193 194 195 197 200 205 207 206 204 204
37 42 43 42 40 38 34 36 53 76 109 139 136 129 138 150 150 150 152 155 161 160 166 173 164 168 180 190 207 206 193 191 187 180 183 186 190 195 195 197 200 199 205 204 197 199 199 186 181 183 182 180 181 179 174 169 176 185 190 246 261 257 314 267 248 253 261 266 271 270 259 234 217 212 209 205 202 200 198 199 201 202 205 209 210 209 209 211
26 32 37 36 36 36 33 37 53 68 86 109 110 101 102 111 114 116 121 127 135 136 136 142 145 148 149 151 183 189 178 178 176 171 174 176 175 178 180 177 175 175 182 190 196 207 212 205 202 205 207 204 203 211 219 222 239 251 249 252 253 245 245 256 263 265 264 266 272 272 265 247 230 222 217 212 208 205 203 204 206 208 211 213 212 212 214 215
14 19 26 30 37 39 35 37 53 68 77 87 94 91 88 91 94 104 113 110 111 119 117 110 117 135 140 137 151 157 156 163 166 164 169 171 167 166 165 161 162 165 170 178 190 203 211 211 209 207 204 201 208 230 237 223 229 242 234 231 232 228 229 233 236 244 248 247 249 252 254 250 242 233 225 218 213 210 208 209 210 212 214 214 213 215 216 217
Height
3098 3097 3096 3095 3095 3094 3093 3093 3092 3091 3091 3090 3090 3090 3089 3089 3089 3089 3089 3089 3089 3089 3090 3090 3090 3090 3090 3090 3091 3091 3091 3091 3091 3091 3091 3091 3091 3091 3092 3092 3093 3093 3094 3095 3096 3097 3098 3100 3102 3103 3105 3106 3107 3108 3109 3111 3112 3113 3114 3115 3115 3116 3117 3119 3120 3121 3122 3122 3123 3123 3123 3123 3123 3123 3124 3125 3126 3127 3129 3130 3131 3131 3132 3133 3133 3133 3134 3135
3096 3096 3095 3094 3094 3093 3092 3091 3091 3090 3089 3089 3088 3088 3088 3087 3087 3087 3087 3087 3088 3088 3088 3088 3088 3088 3088 3089 3089 3090 3090 3090 3089 3089 3089 3090 3090 3090 3090 3091 3091 3091 3092 3093 3094 3095 3096 3098 3100 3102 3103 3104 3105 3107 3108 3109 3111 3112 3112 3113 3114 3114 3117 3118 3119 3120 3121 3121 3122 3123 3123 3123 3123 3124 3124 3126 3127 3127 3129 3130 3130 3131 3131 3132 3132 3133 3133 3134
3095 3095 3094 3093 3092 3092 3091 3090 3089 3089 3088 3087 3087 3086 3086 3086 3085 3085 3085 3086 3086 3086 3086 3086 3087 3087 3087 3087 3088 3088 3088 3088 3088 3088 3088 3088 3088 3089 3089 3089 3089 3090 3091 3091 3092 3093 3095 3097 3099 3101 3102 3103 3104 3105 3106 3108 3109 3110 3111 3112 3112 3114 3116 3117 3118 3119 3119 3121 3122 3122 3122 3122 3123 3123 3124 3125 3126 3127 3128 3129 3129 3130 3131 3131 3132 3132 3133 3133
3094 3094 3093 3092 3091 3091 3090 3089 3088 3088 3087 3086 3085 3085 3084 3084 3084 3083 3083 3084 3084 3084 3085 3085 3085 3085 3085 3086 3086 3086 3087 3087 3087 3086 3087 3087 3087 3087 3087 3088 3088 3088 3089 3090 3091 3092 3094 3095 3097 3099 3100 3101 3102 3104 3105 3106 3108 3109 3110 3110 3111 3113 3115 3116 3117 3118 3118 3119 3121 3121 3122 3122 3122 3122 3123 3124 3125 3127 3128 3128 3129 3129 3130 3130 3131 3132 3132 3133
3093 3092 3092 3091 3090 3089 3089 3088 3087 3086 3086 3085 3084 3083 3083 3082 3082 3082 3082 3082 3082 3082 3083 3083 3083 3084 3084 3084 3085 3085 3085 3085 3085 3085 3085 3086 3086 3086 3086 3086 3087 3087 3088 3089 3090 3091 3092 3094 3096 3097 3098 3099 3101 3102 3103 3105 3106 3108 3109 3109 3110 3112 3113 3115 3116 3116 3117 3118 3119 3120 3121 3121 3121 3121 3122 3123 3124 3125 3127 3127 3128 3128 3129 3130 3131 3131 3131 3131
3092 3091 3090 3090 3089 3088 3088 3087 3086 3085 3084 3084 3083 3082 3081 3081 3080 3080 3080 3080 3080 3080 3081 3081 3081 3082 3082 3083 3083 3083 3084 3084 3084 3084 3084 3085 3085 3085 3085 3085 3085 3086 3087 3088 3089 3090 3091 3092 3094 3095 3096 3098 3099 3101 3102 3104 3105 3107 3108 3108 3109 3110 3112 3114 3115 3115 3115 3116 3117 3118 3119 3120 3120 3120 3121 3122 3123 3124 3125 3126 3127 3127 3128 3129 3130 3130 3130 3130
3090 3090 3089 3088 3088 3087 3086 3085 3085 3084 3083 3082 3082 3081 3080 3080 3079 3078 3078 3078 3078 3079 3079 3079 3080 3080 3081 3081 3082 3082 3083 3082 3082 3083 3083 3083 3084 3084 3084 3085 3085 3085 3085 3086 3087 3088 3090 3091 3092 3093 3095 3096 3098 3099 3101 3102 3104 3106 3107 3107 3108 3109 3111 3112 3113 3113 3114 3115 3116 3116 3118 3119 3119 3119 3120 3121 3122 3123 3124 3125 3126 3127 3127 3128 3129 3129 3129 3129
3089 3088 3088 3087 3086 3085 3085 3084 3083 3083 3082 3081 3080 3080 3079 3078 3078 3077 3077 3077 3077 3077 3077 3077 3078 3079 3079 3080 3080 3081 3081 3081 3081 3081 3082 3082 3083 3083 3083 3084 3084 3084 3084 3085 3086 3087 3088 3089 3091 3092 3094 3095 3097 3098 3099 3101 3103 3104 3105 3106 3107 3108 3110 3111 3111 3112 3113 3113 3114 3115 3117 3118 3118 3118 3120 3121 3122 3122 3123 3124 3125 3126 3126 3127 3127 3128 3128 3128
3088 3087 3086 3086 3085 3084 3083 3082 3082 3081 3081 3080 3079 3079 3078 3077 3076 3076 3076 3075 3075 3076 3076 3076 3077 3077 3078 3078 3079 3080 3079 3079 3080 3080 3080 3081 3081 3082 3082 3083 3083 3083 3083 3084 3085 3086 3087 3088 3090 3091 3092 3094 3096 3097 3098 3100 3102 3103 3104 3105 3106 3107 3108 3109 3110 3111 3112 3112 3113 3114 3116 3116 3117 3117 3119 3120 3121 3121 3122 3123 3124 3125 3125 3126 3126 3127 3127 3127
3087 3086 3085 3084 3083 3083 3082 3081 3080 3080 3079 3078 3078 3077 3077 3076 3075 3075 3074 3074 3074 3074 3074 3075 3075 3076 3076 3077 3078 3078 3078 3078 3078 3079 3079 3079 3080 3081 3081 3081 3082 3082 3082 3083 3084 3085 3086 3087 3089 3090 3091 3093 3095 3096 3097 3099 3101 3102 3103 3103 3104 3106 3107 3107 3109 3110 3110 3111 3112 3113 3114 3115 3115 3116 3118 3119 3120 3120 3121 3122 3123 3124 3124 3125 3125 3125 3125 3126
3085 3084 3084 3083 3082 3081 3080 3080 3079 3078 3078 3077 3077 3076 3076 3075 3074 3073 3073 3073 3073 3073 3073 3073 3074 3074 3075 3076 3076 3076 3076 3077 3077 3077 3078 3078 3079 3080 3080 3080 3081 3081 3082 3082 3083 3084 3085 3086 3087 3089 3091 3092 3093 3095 3096 3098 3100 3101 3101 3102 3103 3105 3105 3106 3107 3109 3110 3111 3111 3112 3112 3113 3114 3115 3116 3118 3118 3119 3120 3121 3122 3122 3123 3123 3124 3124 3124 3125
3084 3083 3082 3082 3081 3080 3079 3079 3078 3077 3076 3076 3075 3075 3074 3073 3073 3072 3072 3071 3071 3071 3071 3072 3072 3073 3074 3074 3075 3075 3075 3076 3076 3077 3077 3077 3078 3078 3078 3079 3079 3080 3081 3081 3082 3083 3084 3085 3086 3088 3090 3091 3093 3095 3096 3097 3099 3100 3101 3102 3103 3104 3104 3105 3106 3108 3109 3110 3110 3111 3111 3111 3112 3113 3115 3116 3117 3118 3119 3120 3120 3121 3121 3121 3122 3122 3123 3124
3082 3081 3081 3080 3080 3079 3078 3077 3077 3076 3075 3074 3074 3073 3073 3072 3071 3071 3070 3070 3070 3070 3070 3070 3071 3072 3073 3073 3073 3074 3075 3075 3075 3076 3076 3076 3077 3077 3077 3078 3078 3079 3079 3080 3081 3082 3084 3085 3086 3088 3089 3091 3093 3094 3095 3097 3098 3099 3100 3101 3103 3103 3104 3105 3106 3107 3108 3108 3109 3109 3110 3110 3111 3112 3113 3115 3116 3117 3118 3118 3119 3119 3120 3120 3120 3121 3122 3123
3080 3080 3079 3079 3078 3078 3077 3076 3075 3075 3074 3073 3072 3072 3071 3070 3070 3070 3069 3069 3068 3068 3068 3069 3070 3071 3072 3072 3072 3073 3074 3074 3074 3074 3075 3075 3076 3076 3076 3077 3077 3078 3078 3078 3080 3082 3083 3085 3086 3088 3089 3091 3092 3093 3095 3096 3098 3099 3100 3101 3102 3103 3103 3104 3105 3106 3106 3107 3107 3108 3108 3108 3109 3110 3111 3113 3114 3115 3116 3117 3117 3118 3118 3119 3119 3120 3121 3122
3079 3078 3078 3077 3077 3076 3076 3075 3074 3073 3073 3072 3071 3070 3069 3069 3069 3068 3068 3068 3067 3067 3067 3068 3069 3069 3070 3071 3071 3072 3072 3072 3073 3073 3074 3074 3074 3075 3075 3076 3077 3078 3078 3078 3080 3082 3083 3085 3086 3088 3089 3090 3092 3093 3095 3096 3097 3098 3099 3100 3100 3101 3102 3102 3103 3104 3105 3105 3105 3106 3105 3106 3108 3108 3109 3111 3112 3114 3115 3115 3116 3117 3117 3118 3119 3120 3121 3122
3078 3077 3076 3076 3076 3075 3074 3074 3073 3072 3071 3070 3069 3069 3068 3068 3067 3067 3067 3066 3066 3065 3066 3067 3067 3068 3069 3070 3070 3071 3071 3071 3072 3072 3073 3073 3073 3074 3074 3075 3076 3077 3078 3079 3080 3082 3083 3084 3086 3087 3089 3090 3091 3093 3094 3095 3096 3097 3098 3099 3099 3100 3101 3101 3102 3102 3103 3103 3103 3103 3103 3104 3106 3106 3107 3108 3110 3112 3113 3114 3114 3116 3116 3117 3118 3119 3120 3121
3076 3075 3075 3074 3074 3074 3073 3072 3072 3071 3070 3069 3068 3067 3067 3066 3066 3066 3065 3065 3064 3064 3064 3065 3066 3067 3068 3068 3069 3069 3070 3070 3071 3071 3071 3072 3073 3073 3074 3075 3076 3077 3077 3078 3080 3081 3083 3084 3086 3087 3088 3089 3091 3092 3093 3094 3095 3096 3097 3097 3098 3098 3099 3100 3101 3101 3101 3101 3101 3101 3102 3103 3104 3104 3104 3105 3108 3109 3111 3112 3113 3114 3115 3116 3117 3118 3119 3120
3074 3074 3073 3073 3072 3072 3072 3071 3070 3070 3069 3068 3067 3066 3066 3065 3065 3065 3064 3064 3063 3063 3063 3063 3064 3065 3066 3066 3067 3068 3069 3069 3070 3071 3071 3071 3072 3073 3073 3074 3075 3076 3077 3079 3080 3081 3083 3084 3085 3086 3088 3089 3090 3091 3092 3093 3093 3094 3095 3096 3097 3097 3098 3098 3099 3099 3099 3099 3098 3098 3099 3101 3102 3103 3103 3103 3105 3107 3109 3111 3112 3113 3114 3115 3116 3117 3118 3119
3073 3072 3072 3071 3071 3071 3070 3069 3069 3068 3068 3067 3066 3065 3065 3064 3064 3064 3063 3063 3063 3062 3062 3062 3062 3064 3065 3065 3066 3067 3068 3069 3069 3070 3070 3070 3072 3072 3073 3074 3075 3076 3077 3079 3080 3081 3082 3083 3084 3085 3086 3088 3089 3090 3091 3092 3093 3094 3094 3095 3095 3096 3096 3097 3097 3097 3097 3096 3096 3096 3098 3099 3100 3102 3102 3103 3104 3106 3108 3109 3110 3112 3113 3114 3115 3116 3117 3118
3071 3071 3070 3070 3069 3069 3069 3068 3068 3067 3066 3065 3065 3064 3064 3063 3063 3063 3062 3062 3061 3061 3061 3060 3061 3062 3063 3063 3064 3065 3066 3067 3068 3069 3069 3070 3071 3072 3072 3073 3074 3076 3077 3079 3080 3081 3082 3083 3083 3084 3086 3087 3088 3089 3090 3091 3092 3092 3093 3094 3094 3095 3095 3095 3095 3095 3095 3094 3093 3094 3096 3098 3099 3100 3101 3102 3104 3105 3106 3108 3109 3111 3112 3113 3115 3116 3117 3117
3069 3069 3068 3068 3068 3067 3067 3067 3066 3066 3065 3064 3063 3063 3063 3062 3062 3061 3061 3060 3060 3059 3058 3058 3059 3059 3061 3062 3063 3064 3065 3066 3067 3068 3068 3069 3070 3071 3072 3073 3074 3076 3077 3078 3079 3080 3081 3081 3082 3084 3085 3086 3087 3088 3089 3090 3091 3091 3092 3093 3093 3094 3094 3094 3094 3094 3093 3093 3092 3093 3094 3096 3097 3099 3100 3102 3103 3104 3105 3107 3108 3110 3111 3113 3114 3115 3116 3116
3068 3067 3067 3066 3066 3066 3066 3066 3065 3064 3064 3063 3062 3062 3062 3061 3061 3060 3059 3058 3058 3058 3057 3056 3057 3058 3059 3060 3061 3063 3064 3065 3066 3066 3067 3068 3069 3070 3072 3073 3074 3075 3076 3078 3078 3079 3080 3080 3081 3083 3084 3085 3085 3086 3088 3089 3090 3091 3091 3092 3092 3092 3093 3093 3093 3093 3092 3092 3091 3091 3093 3095 3096 3098 3099 3100 3101 3102 3104 3105 3107 3109 3110 3112 3113 3114 3115 3115
3066 3065 3065 3065 3064 3064 3064 3064 3064 3063 3063 3062 3062 3061 3061 3061 3060 3060 3058 3057 3056 3056 3055 3055 3055 3056 3058 3059 3060 3061 3062 3064 3064 3065 3066 3068 3069 3070 3071 3072 3074 3075 3076 3077 3078 3079 3079 3079 3081 3083 3083 3084 3085 3085 3087 3088 3089 3090 3090 3091 3091 3091 3092 3092 3093 3092 3092 3091 3091 3091 3092 3094 3095 3097 3098 3099 3100 3101 3103 3104 3106 3108 3109 3111 3112 3113 3114 3115
3063 3063 3063 3062 3062 3062 3062 3063 3062 3062 3062 3061 3061 3061 3060 3060 3060 3059 3058 3056 3054 3054 3054 3053 3053 3054 3056 3056 3058 3060 3062 3063 3064 3064 3066 3067 3068 3069 3071 3072 3073 3074 3075 3076 3077 3078 3079 3079 3080 3082 3083 3083 3084 3085 3086 3087 3088 3089 3089 3090 3090 3090 3091 3092 3092 3092 3092 3092 3091 3091 3093 3094 3095 3096 3097 3098 3099 3100 3102 3103 3105 3107 3108 3109 3111 3112 3113 3114
3061 3061 3060 3060 3060 3060 3060 3061 3061 3061 3061 3060 3060 3060 3060 3060 3060 3059 3058 3055 3053 3052 3052 3051 3052 3053 3053 3054 3056 3059 3061 3062 3063 3064 3066 3067 3068 3069 3070 3072 3073 3074 3075 3076 3077 3077 3078 3079 3080 3081 3082 3083 3083 3084 3085 3086 3087 3088 3088 3089 3089 3090 3090 3091 3092 3092 3092 3092 3092 3092 3093 3094 3095 3095 3096 3097 3099 3100 3101 3103 3105 3106 3107 3108 3110 3111 3112 3113
3059 3058 3058 3058 3058 3058 3058 3058 3059 3059 3059 3059 3059 3059 3059 3060 3060 3059 3057 3055 3052 3051 3051 3050 3051 3051 3052 3053 3055 3058 3060 3062 3063 3064 3065 3067 3068 3069 3070 3071 3072 3073 3074 3075 3076 3077 3077 3079 3079 3080 3081 3082 3082 3083 3084 3085 3086 3087 3087 3088 3089 3089 3090 3091 3091 3092 3092 3092 3092 3092 3092 3093 3094 3095 3096 3097 3098 3099 3101 3103 3104 3106 3107 3108 3109 3110 3111 3112
3056 3056 3056 3056 3056 3056 3056 3056 3057 3057 3058 3058 3058 3058 3059 3059 3059 3058 3057 3055 3052 3050 3050 3050 3050 3051 3052 3053 3054 3057 3060 3061 3062 3063 3065 3066 3067 3068 3070 3070 3071 3072 3073 3075 3076 3076 3077 3078 3079 3079 3080 3080 3081 3082 3083 3084 3085 3086 3087 3087 3088 3088 3089 3090 3091 3091 3091 3091 3092 3092 3092 3093 3094 3095 3095 3096 3097 3099 3100 3102 3103 3105 3106 3107 3109 3110 3111 3112
3053 3053 3053 3053 3053 3053 3054 3054 3055 3055 3056 3056 3057 3057 3058 3059 3059 3058 3059 3057 3052 3049 3050 3050 3050 3050 3051 3052 3054 3057 3059 3060 3061 3062 3064 3066 3067 3068 3069 3069 3071 3072 3073 3074 3075 3075 3076 3077 3078 3079 3079 3080 3080 3081 3082 3083 3084 3085 3086 3087 3087 3088 3088 3089 3090 3090 3091 3091 3091 3092 3092 3092 3094 3094 3095 3096 3097 3098 3099 3101 3103 3104 3106 3107 3108 3109 3110 3111
3050 3049 3050 3050 3050 3050 3051 3052 3052 3053 3054 3055 3056 3056 3057 3058 3059 3058 3060 3057 3051 3049 3050 3050 3050 3050 3051 3052 3053 3056 3058 3059 3060 3061 3063 3064 3065 3067 3068 3069 3071 3072 3073 3073 3074 3075 3076 3077 3077 3078 3078 3079 3079 3080 3081 3082 3083 3084 3085 3086 3087 3087 3088 3088 3089 3090 3090 3091 3091 3092 3092 3092 3093 3094 3094 3096 3097 3097 3099 3100 3101 3103 3104 3106 3107 3108 3109 3110
3047 3046 3046 3047 3047 3048 3048 3050 3050 3050 3052 3053 3054 3055 3056 3057 3058 3059 3059 3054 3049 3049 3050 3049 3050 3050 3051 3052 3053 3055 3056 3058 3059 3060 3061 3063 3064 3066 3067 3068 3070 3071 3072 3072 3073 3074 3075 3076 3076 3077 3077 3078 3078 3079 3080 3081 3082 3084 3084 3085 3086 3087 3087 3088 3088 3089 3090 3090 3090 3091 3091 3091 3092 3093 3094 3095 3096 3097 3098 3099 3100 3102 3103 3104 3105 3106 3108 3109
3044 3044 3043 3043 3044 3045 3046 3047 3047 3048 3049 3051 3053 3054 3055 3056 3057 3058 3056 3050 3048 3050 3049 3049 3050 3050 3050 3051 3052 3054 3055 3056 3057 3058 3060 3061 3063 3064 3065 3067 3068 3069 3070 3071 3071 3073 3074 3074 3075 3075 3076 3076 3077 3078 3079 3080 3081 3082 3083 3084 3085 3086 3087 3088 3088 3089 3089 3089 3089 3090 3091 3091 3091 3092 3094 3095 3095 3096 3098 3099 3100 3101 3102 3103 3104 3105 3106 3107
3042 3041 3040 3040 3041 3042 3043 3043 3044 3045 3047 3049 3051 3052 3053 3054 3055 3053 3050 3048 3048 3049 3048 3049 3049 3050 3050 3050 3051 3052 3054 3055 3057 3058 3059 3060 3061 3062 3064 3065 3066 3068 3069 3069 3070 3071 3072 3073 3073 3074 3075 3075 3076 3076 3078 3079 3080 3081 3082 3083 3084 3086 3087 3088 3087 3088 3088 3088 3089 3089 3090 3091 3091 3092 3093 3094 3095 3096 3097 3098 3099 3100 3101 3101 3102 3103 3104 3105
3039 3038 3038 3037 3037 3039 3039 3040 3041 3043 3044 3046 3048 3049 3051 3052 3049 3047 3046 3047 3047 3047 3047 3048 3049 3049 3050 3050 3050 3051 3052 3054 3056 3057 3058 3060 3061 3061 3062 3064 3065 3066 3067 3068 3069 3070 3070 3071 3072 3072 3073 3074 3074 3075 3076 3077 3079 3080 3081 3082 3082 3084 3088 3089 3089 3089 3089 3087 3088 3089 3090 3090 3090 3091 3092 3093 3094 3095 3096 3097 3098 3099 3100 3100 3100 3101 3102 3102
3037 3036 3035 3034 3034 3035 3036 3037 3038 3039 3041 3043 3045 3047 3048 3047 3044 3043 3045 3046 3046 3046 3047 3047 3048 3049 3049 3049 3049 3050 3051 3053 3054 3056 3057 3058 3059 3060 3061 3062 3063 3065 3066 3067 3067 3068 3069 3069 3070 3071 3071 3072 3073 3074 3075 3077 3078 3078 3079 3080 3081 3081 3084 3086 3086 3086 3086 3086 3087 3089 3089 3089 3089 3090 3091 3092 3093 3094 3095 3096 3097 3098 3098 3098 3099 3099 3099 3100
3034 3033 3033 3032 3032 3033 3033 3034 3035 3037 3038 3040 3042 3043 3042 3041 3041 3042 3043 3044 3045 3046 3046 3046 3047 3047 3048 3048 3049 3049 3050 3051 3052 3054 3055 3056 3057 3058 3059 3060 3062 3063 3064 3066 3066 3066 3067 3067 3068 3069 3070 3071 3072 3073 3074 3076 3076 3077 3078 3079 3080 3080 3081 3082 3083 3083 3084 3085 3087 3088 3088 3088 3088 3089 3090 3091 3092 3093 3094 3095 3095 3096 3096 3097 3097 3097 3097 3097
3032 3031 3031 3030 3030 3030 3031 3032 3033 3034 3035 3037 3038 3037 3036 3037 3040 3041 3042 3043 3043 3044 3045 3045 3046 3046 3047 3047 3048 3048 3049 3050 3051 3052 3053 3054 3055 3056 3057 3058 3060 3061 3062 3063 3064 3065 3066 3066 3066 3067 3068 3069 3070 3071 3072 3074 3074 3075 3076 3077 3078 3079 3080 3080 3082 3084 3084 3085 3085 3086 3087 3087 3088 3088 3088 3089 3090 3091 3092 3093 3094 3094 3094 3094 3094 3095 3095 3095
3029 3029 3028 3028 3027 3027 3028 3029 3030 3031 3032 3033 3033 3032 3033 3036 3039 3040 3041 3041 3042 3043 3044 3044 3045 3045 3045 3046 3046 3047 3048 3049 3049 3050 3051 3052 3053 3054 3055 3057 3058 3059 3060 3062 3063 3063 3064 3065 3065 3066 3066 3068 3069 3070 3071 3072 3072 3073 3074 3075 3076 3078 3079 3079 3081 3084 3085 3084 3084 3085 3086 3086 3087 3087 3087 3088 3089 3090 3091 3092 3092 3092 3092 3093 3093 3093 3093 3093
3027 3027 3026 3025 3025 3025 3025 3026 3028 3028 3030 3030 3030 3030 3033 3035 3037 3038 3039 3040 3041 3042 3042 3043 3044 3044 3044 3044 3045 3046 3047 3047 3048 3049 3050 3051 3052 3052 3053 3054 3056 3057 3058 3060 3061 3062 3063 3064 3064 3064 3065 3066 3067 3068 3069 3069 3071 3072 3072 3074 3075 3075 3077 3077 3079 3082 3083 3084 3084 3084 3085 3085 3085 3085 3086 3087 3088 3089 3090 3091 3091 3091 3091 3092 3092 3092 3092 3092
3025 3024 3024 3023 3023 3022 3023 3024 3025 3026 3027 3026 3027 3029 3030 3032 3034 3036 3038 3039 3040 3040 3041 3042 3042 3043 3043 3043 3044 3045 3045 3046 3046 3047 3048 3049 3050 3051 3051 3052 3054 3055 3056 3058 3059 3060 3061 3062 3063 3063 3064 3065 3065 3066 3066 3067 3068 3070 3071 3072 3073 3073 3074 3075 3076 3077 3078 3082 3084 3084 3084 3083 3083 3084 3085 3086 3087 3088 3089 3090 3091 3091 3091 3091 3092 3092 3092 3092
3023 3022 3021 3021 3021 3020 3021 3022 3022 3023 3024 3023 3025 3027 3028 3030 3033 3034 3036 3037 3038 3039 3040 3040 3041 3042 3042 3043 3043 3043 3044 3044 3045 3046 3047 3048 3049 3050 3050 3051 3052 3053 3054 3055 3057 3058 3060 3060 3061 3062 3063 3063 3063 3064 3064 3065 3066 3067 3068 3069 3070 3071 3072 3074 3075 3075 3076 3078 3081 3081 3082 3081 3080 3082 3084 3085 3086 3087 3088 3089 3090 3090 3091 3091 3092 3092 3093 3093
3021 3020 3019 3019 3019 3019 3019 3020 3020 3021 3021 3022 3024 3026 3028 3029 3031 3033 3034 3035 3036 3037 3038 3039 3040 3040 3041 3042 3042 3042 3043 3043 3044 3044 3045 3046 3047 3048 3050 3051 3051 3052 3053 3053 3054 3056 3057 3058 3060 3061 3061 3061 3062 3062 3063 3064 3064 3065 3066 3067 3068 3069 3070 3071 3073 3074 3074 3075 3077 3078 3078 3078 3079 3081 3082 3083 3085 3086 3087 3088 3089 3090 3091 3091 3092 3093 3094 3094
3020 3019 3018 3018 3017 3017 3018 3018 3018 3019 3020 3021 3023 3025 3027 3029 3030 3031 3033 3033 3034 3035 3036 3037 3038 3039 3039 3040 3041 3041 3042 3042 3043 3043 3044 3045 3045 3046 3048 3050 3051 3051 3051 3052 3053 3054 3055 3057 3058 3059 3060 3060 3060 3061 3062 3062 3063 3064 3064 3065 3066 3067 3068 3069 3070 3071 3073 3073 3074 3075 3075 3076 3078 3079 3080 3082 3083 3085 3086 3087 3088 3089 3090 3091 3092 3093 3094 3095
3018 3018 3017 3016 3016 3017 3017 3017 3017 3018 3019 3020 3022 3024 3026 3027 3028 3030 3031 3032 3032 3033 3034 3035 3036 3037 3038 3038 3039 3040 3040 3041 3041 3042 3043 3043 3044 3045 3046 3047 3048 3049 3050 3051 3052 3053 3054 3055 3056 3058 3059 3059 3059 3060 3060 3061 3062 3062 3063 3064 3065 3065 3066 3067 3068 3069 3070 3071 3072 3074 3075 3076 3077 3078 3079 3081 3082 3083 3085 3086 3087 3088 3089 3090 3091 3092 3093 3094
3018 3017 3016 3016 3016 3016 3016 3016 3017 3018 3019 3020 3021 3023 3025 3026 3027 3028 3029 3030 3031 3032 3033 3033 3034 3035 3036 3037 3038 3038 3039 3040 3040 3040 3041 3042 3043 3043 3044 3045 3046 3047 3049 3050 3051 3052 3053 3053 3055 3056 3058 3059 3059 3059 3059 3060 3061 3061 3061 3062 3063 3064 3065 3066 3067 3068 3068 3069 3070 3071 3073 3074 3075 3077 3078 3079 3081 3082 3083 3085 3086 3087 3088 3089 3090 3092 3093 3094
3017 3017 3016 3016 3016 3016 3016 3016 3017 3018 3018 3019 3020 3022 3023 3024 3025 3027 3028 3029 3030 3031 3031 3032 3032 3034 3034 3035 3036 3037 3038 3038 3039 3039 3040 3040 3042 3042 3043 3044 3045 3046 3048 3049 3050 3051 3052 3053 3053 3053 3054 3055 3056 3056 3057 3058 3059 3060 3061 3061 3062 3063 3063 3064 3066 3067 3067 3068 3069 3070 3071 3072 3074 3076 3077 3078 3079 3081 3082 3083 3084 3086 3087 3088 3089 3091 3092 3093
3018 3017 3017 3016 3016 3015 3016 3016 3016 3017 3017 3018 3019 3020 3021 3023 3024 3025 3027 3027 3028 3029 3030 3030 3031 3032 3033 3033 3034 3035 3036 3037 3038 3038 3039 3039 3040 3041 3042 3044 3044 3045 3047 3048 3049 3050 3051 3052 3053 3052 3052 3053 3054 3055 3056 3057 3058 3059 3060 3061 3061 3062 3062 3063 3064 3065 3065 3066 3068 3069 3070 3071 3073 3074 3076 3077 3078 3079 3080 3082 3083 3084 3086 3087 3088 3089 3090 3091
3019 3018 3017 3017 3016 3016 3015 3015 3015 3015 3016 3017 3018 3019 3020 3021 3023 3024 3025 3026 3027 3027 3028 3029 3030 3030 3031 3032 3033 3034 3035 3036 3036 3037 3037 3038 3039 3041 3042 3043 3044 3044 3045 3046 3048 3049 3049 3050 3052 3052 3053 3053 3054 3056 3057 3057 3058 3058 3059 3060 3061 3061 3062 3062 3063 3064 3064 3066 3067 3068 3069 3070 3071 3073 3075 3076 3077 3078 3079 3081 3082 3083 3084 3086 3087 3088 3089 3090
3020 3019 3018 3018 3017 3017 3016 3015 3014 3014 3015 3015 3016 3017 3019 3020 3021 3023 3024 3025 3025 3026 3027 3027 3028 3029 3030 3031 3032 3032 3033 3034 3035 3035 3036 3037 3038 3040 3041 3042 3043 3043 3044 3045 3047 3048 3049 3050 3051 3052 3053 3053 3054 3056 3057 3058 3058 3058 3059 3059 3060 3061 3061 3062 3062 3063 3064 3065 3066 3067 3068 3070 3071 3072 3074 3075 3076 3077 3078 3080 3081 3082 3083 3084 3085 3086 3087 3088
3021 3020 3020 3019 3018 3018 3017 3016 3015 3015 3015 3015 3015 3016 3018 3019 3021 3022 3023 3024 3025 3025 3026 3027 3027 3028 3029 3030 3031 3031 3032 3033 3033 3034 3035 3036 3037 3038 3040 3041 3042 3042 3043 3044 3045 3047 3048 3050 3052 3053 3053 3053 3054 3055 3056 3057 3058 3058 3058 3058 3059 3060 3061 3061 3062 3062 3064 3064 3065 3066 3067 3069 3070 3072 3073 3074 3076 3077 3078 3079 3080 3081 3082 3083 3084 3085 3086 3087
3022 3022 3021 3020 3020 3019 3018 3017 3017 3016 3016 3016 3016 3017 3018 3018 3019 3020 3022 3023 3024 3025 3026 3026 3026 3027 3028 3029 3030 3030 3031 3031 3032 3032 3033 3035 3036 3037 3038 3039 3041 3042 3042 3043 3044 3045 3047 3049 3051 3052 3053 3053 3053 3054 3055 3056 3057 3057 3058 3058 3058 3059 3060 3061 3061 3062 3063 3064 3065 3066 3067 3067 3069 3070 3072 3073 3075 3076 3077 3078 3079 3080 3081 3082 3083 3084 3085 3086
3023 3023 3022 3021 3021 3020 3019 3018 3018 3017 3017 3017 3018 3019 3018 3018 3019 3020 3021 3022 3023 3024 3025 3026 3026 3026 3027 3028 3029 3030 3030 3031 3031 3032 3033 3034 3035 3036 3037 3038 3039 3041 3041 3042 3043 3044 3045 3048 3049 3050 3052 3052 3053 3054 3055 3056 3057 3057 3058 3058 3059 3059 3060 3061 3061 3062 3062 3063 3065 3065 3066 3067 3068 3069 3071 3072 3074 3075 3076 3077 3078 3079 3080 3081 3082 3082 3083 3084
3024 3023 3023 3022 3021 3021 3020 3019 3019 3019 3018 3019 3019 3020 3020 3019 3020 3021 3021 3022 3023 3024 3025 3025 3026 3027 3027 3028 3029 3029 3030 3031 3032 3032 3033 3034 3034 3035 3036 3037 3038 3039 3040 3041 3042 3042 3044 3045 3047 3048 3050 3051 3052 3053 3054 3056 3057 3057 3056 3057 3058 3059 3060 3061 3061 3062 3063 3064 3065 3065 3066 3066 3067 3068 3069 3070 3072 3073 3075 3076 3076 3077 3078 3079 3079 3080 3081 3082